Location: �perlecques
(50.8057°N, 2.1521°E)
Time: 08:51:17
(UTC+00:00)

STARS - Pass Details

Date: 11 April 2023
Orbit: 616 x 630 km, 98.1° (Epoch: 02 June)

Event Time Altitude Azimuth Distance (km) Brightness Sun altitude
Rises 22:07:54 0° 26° (NNE) 2,926 ? -26.5°
Reaches altitude 10° 22:10:38 10° 44° (NE) 2,016 ? -26.7°
Enters shadow 22:11:35 14° 55° (NE) 1,768 ? -26.8°
